Athens Eleftherios, Greece

4:55 PM EEST on June 25, 2017 (GMT +0300)
Eleftherios Venizelos International

Weather History for LGAV - October, 2012

Change the Weather History Date:

Sunday, October 28, 2012

  Actual Average (LGAT) Record (LGAT)
Temperature  
Mean Temperature 74 °F -  
Max Temperature 78 °F 68 °F 75 °F (1999)
Min Temperature 69 °F 55 °F 46 °F (1997)
Cooling Degree Days 8    
Growing Degree Days 24 (Base 50)    
Moisture  
Dew Point 60 °F    
Average Humidity 63    
Maximum Humidity 78    
Minimum Humidity 47    
Precipitation  
Precipitation 0.00 in - - ()
Sea Level Pressure  
Sea Level Pressure 29.81 in    
Wind  
Wind Speed 18 mph ()    
Max Wind Speed 31 mph    
Max Gust Speed 39 mph    
Visibility 6.2 miles    
Events      
Averages and records for this station are not official NWS values.
T = Trace of Precipitation, MM = Missing Value Source: Averaged Metar Reports

Daily Weather History Graph

Daily Weather History Graph

Search for Another Location

Airport or City:

Trip Planner

Search our weather history database for the weather conditions in past years. The results will help you decide how hot, cold, wet, or windy it might be!

Date:

Astronomy

Oct. 28, 2012 Rise Set
Actual Time 6:45 AM EET 5:29 PM EET
Civil Twilight 6:18 AM EET 5:56 PM EET
Nautical Twilight 5:47 AM EET 6:27 PM EET
Astronomical Twilight 5:17 AM EET 6:58 PM EET
Moon 4:36 PM EET (10/28) 5:21 AM EET (10/28)
Length of Visible Light 11h 37m
Length of Day
10h 43m
Waxing Gibbous, 98% of the Moon is Illuminated
Oct 28
Waxing Gibbous
Oct 29
Full
Nov 7
Last Quarter
Nov 14
New
Nov 20
First Quarter

Hourly Weather History & Observations

Time (EET) Temp. Dew Point Humidity Pressure Visibility Wind Dir Wind Speed Gust Speed Precip Events Conditions
12:20 AM 71.6 °F 64.4 °F 78% 29.80 in 6.2 mi South 24.2 mph - N/A   Mostly Cloudy
12:50 AM 71.6 °F 64.4 °F 78% 29.80 in 6.2 mi South 15.0 mph - N/A   Scattered Clouds
1:20 AM 71.6 °F 64.4 °F 78% 29.80 in 6.2 mi South 15.0 mph - N/A   Light Drizzle
1:50 AM 71.6 °F 64.4 °F 78% 29.80 in 6.2 mi South 12.7 mph - N/A   Light Drizzle
2:20 AM 71.6 °F 64.4 °F 78% 29.80 in 6.2 mi South 18.4 mph - N/A   Scattered Clouds
2:50 AM 71.6 °F 64.4 °F 78% 29.80 in 6.2 mi South 21.9 mph 33.4 mph N/A   Mostly Cloudy
3:20 AM 71.6 °F 64.4 °F 78% 29.77 in 6.2 mi SSW 26.5 mph - N/A   Mostly Cloudy
3:50 AM 71.6 °F 62.6 °F 73% 29.77 in 6.2 mi South 21.9 mph - N/A   Mostly Cloudy
3:20 AM 71.6 °F 62.6 °F 73% 29.77 in 6.2 mi South 23.0 mph - N/A   Mostly Cloudy
3:50 AM 71.6 °F 62.6 °F 73% 29.77 in 6.2 mi SSW 23.0 mph - N/A   Mostly Cloudy
4:20 AM 71.6 °F 62.6 °F 73% 29.77 in 6.2 mi South 24.2 mph - N/A   Mostly Cloudy
4:50 AM 71.6 °F 60.8 °F 69% 29.53 in 6.2 mi SSW 31.1 mph - N/A   Mostly Cloudy
5:20 AM 71.6 °F 60.8 °F 69% 29.77 in 6.2 mi SSW 27.6 mph - N/A   Mostly Cloudy
5:50 AM 73.4 °F 60.8 °F 65% 29.80 in 6.2 mi South 25.3 mph - N/A   Mostly Cloudy
6:20 AM 73.4 °F 60.8 °F 65% 29.80 in 6.2 mi South 18.4 mph - N/A   Mostly Cloudy
6:50 AM 73.4 °F 60.8 °F 65% 29.80 in 6.2 mi South 21.9 mph - N/A   Mostly Cloudy
7:20 AM 73.4 °F 60.8 °F 65% 29.80 in 6.2 mi SSW 28.8 mph - N/A   Mostly Cloudy
7:50 AM 73.4 °F 60.8 °F 65% 29.80 in 6.2 mi South 25.3 mph - N/A   Mostly Cloudy
8:20 AM 73.4 °F 59.0 °F 61% 29.83 in 6.2 mi South 19.6 mph - N/A   Mostly Cloudy
8:50 AM 73.4 °F 60.8 °F 65% 29.83 in 6.2 mi South 21.9 mph - N/A   Mostly Cloudy
9:20 AM 73.4 °F 59.0 °F 61% 29.83 in 6.2 mi SSW 20.7 mph - N/A   Mostly Cloudy
9:50 AM 75.2 °F 59.0 °F 57% 29.83 in 6.2 mi SSW 28.8 mph - N/A   Mostly Cloudy
10:20 AM 75.2 °F 60.8 °F 61% 29.86 in 6.2 mi South 27.6 mph 39.1 mph N/A   Mostly Cloudy
10:50 AM 75.2 °F 59.0 °F 57% 29.83 in 6.2 mi South 27.6 mph - N/A   Mostly Cloudy
11:20 AM 75.2 °F 59.0 °F 57% 29.83 in 6.2 mi South 29.9 mph - N/A   Mostly Cloudy
11:50 AM 75.2 °F 60.8 °F 61% 29.86 in 6.2 mi SSW 25.3 mph - N/A   Mostly Cloudy
12:20 PM 77.0 °F 59.0 °F 54% 29.86 in 6.2 mi SSW 23.0 mph - N/A   Mostly Cloudy
12:50 PM 75.2 °F 59.0 °F 57% 29.86 in 6.2 mi South 17.3 mph - N/A   Mostly Cloudy
1:20 PM 77.0 °F 57.2 °F 50% 29.86 in 6.2 mi South 13.8 mph - N/A   Mostly Cloudy
1:50 PM 78.8 °F 57.2 °F 47% 29.83 in 6.2 mi South 18.4 mph - N/A   Mostly Cloudy
2:20 PM 77.0 °F 55.4 °F 47% 29.83 in 6.2 mi South 16.1 mph - N/A   Mostly Cloudy
2:50 PM 77.0 °F 57.2 °F 50% 29.83 in 6.2 mi South 19.6 mph - N/A   Mostly Cloudy
3:20 PM 75.2 °F 59.0 °F 57% 29.83 in 6.2 mi South 19.6 mph - N/A   Mostly Cloudy
3:50 PM 77.0 °F 57.2 °F 50% 29.83 in 6.2 mi South 17.3 mph - N/A   Mostly Cloudy
4:20 PM 77.0 °F 57.2 °F 50% 29.80 in 6.2 mi South 15.0 mph - N/A   Mostly Cloudy
4:50 PM 75.2 °F 57.2 °F 53% 29.83 in 6.2 mi South 12.7 mph - N/A   Mostly Cloudy
5:20 PM 75.2 °F 59.0 °F 57% 29.80 in 6.2 mi SE 11.5 mph - N/A   Mostly Cloudy
5:50 PM 75.2 °F 59.0 °F 57% 29.80 in 6.2 mi ESE 12.7 mph - N/A   Mostly Cloudy
6:20 PM 73.4 °F 60.8 °F 65% 29.80 in 6.2 mi SE 12.7 mph - N/A   Mostly Cloudy
6:50 PM 73.4 °F 60.8 °F 65% 29.80 in 6.2 mi SE 16.1 mph - N/A   Mostly Cloudy
7:20 PM 73.4 °F 62.6 °F 69% 29.80 in 6.2 mi SSE 15.0 mph - N/A   Mostly Cloudy
7:50 PM 73.4 °F 59.0 °F 61% 29.83 in 6.2 mi South 11.5 mph - N/A   Scattered Clouds
8:20 PM 73.4 °F 59.0 °F 61% 29.83 in 6.2 mi South 10.4 mph - N/A   Scattered Clouds
8:50 PM 75.2 °F 57.2 °F 53% 29.83 in 6.2 mi South 11.5 mph - N/A   Scattered Clouds
9:20 PM 73.4 °F 59.0 °F 61% 29.83 in 6.2 mi South 8.1 mph - N/A   Scattered Clouds
9:50 PM 71.6 °F 57.2 °F 60% 29.83 in 6.2 mi SSW 9.2 mph - N/A   Scattered Clouds
10:20 PM 69.8 °F 59.0 °F 68% 29.83 in 6.2 mi Variable 3.5 mph - N/A   Partly Cloudy
10:50 PM 69.8 °F 59.0 °F 68% 29.80 in 6.2 mi SE 4.6 mph - N/A   Scattered Clouds